User: anonymous   Login
Location: SAPM � Hemmingford
(45.0500°N, 73.5833°W)
Time: 20:18:29
(UTC-04:00)
Language:

Cosmos 1603 - Orbit

View from above orbital plane
View from above orbital plane
View from above satellite
View from above satellite

Ground track
Ground track

The orbit data is extracted from the following two-line orbital elements,

1 15333U 84106A   15186.45081473  .00000333  00000-0  19973-3 0  9998
2 15333 071.0258 144.7564 0020866 216.2333 282.6793 14.14004635587514
Epoch (UTC): 05 July 2015 10:49:10
Eccentricity: 0.0020866
inclination: 71.0258°
perigee height: 830 km
apogee height: 861 km
right ascension of ascending node: 144.7564°
argument of perigee: 216.2333°
revolutions per day: 14.14004635
mean anomaly at epoch: 282.6793°
orbit number at epoch: 58751

The dashed part of the orbit path shows where the satellite is in the earth's shadow,  

DLR